Regional Weather Roundup
Issued by NWS

Home | Current Version | Previous Version | Text Only | Print | Product List | Glossary On
Versions: 1 2 3 4 5 6 7 8 9 10 11 12 13 14 15 16 17 18 19 20 21 22 23 24 25 26 27 28 29 30 31 32 33 34 35 36 37 38 39 40 41 42 43 44 45 46 47 48 49 50
000
ASCA42 TJSJ 271010
RWRPR
PUERTO RICO/U.S. VIRGIN ISLANDS HOURLY WEATHER ROUNDUP
NATIONAL WEATHER SERVICE SAN JUAN PR
600 AM AST FRI MAR 27 2015

PRZ001-004-271100-
PUERTO RICO

CITY           SKY/WX    TMP DP  RH WIND       PRES   REMARKS
SAN JUAN LMM   PTCLDY    75  70  83 CALM      30.05R
PONCE          PTCLDY    72  66  83 CALM      30.00R
CEIBA          PTCLDY    77  70  78 E9        30.07R
$$

PRZ006-007-271100-
U.S. VIRGIN ISLANDS

CITY           SKY/WX    TMP DP  RH WIND       PRES   REMARKS
$$

HOURLY WEATHER ROUNDUP FOR THE NEWS MEDIA

CITY           SKY/WX    TMP DP  RH WIND       PRES   REMARKS
ORLANDO        MOCLDY    66  63  90 S9        29.82F
NEW YORK       LGT RAIN  43  38  82 NW14      29.77R
NEWARK         LGT RAIN  40  37  89 NW17G23   29.77R WCI  31
CHICAGO        LGT SNOW  27  22  81 NE13      30.08R WCI  16
HARTFORD       LGT RAIN  41  40  96 N9        29.65R
BOSTON         LGT RAIN  41  40  96 NW8       29.68S
DALLAS         PTCLDY    48  37  66 SW3       30.09S
PHILADELPHIA   LGT RAIN  41  36  82 N17       29.80S
LOS ANGELES    CLEAR     64  50  60 CALM      30.04S
WASHINGTON DC  LGT RAIN  42  39  89 NE7       29.79F


USA.gov is the U.S. government's official web portal to all federal, state and local government web resources and services.